Wind_Speed
11 11 11 11 12 13 10 10 10 10 10 10 9 9 9 8 6 5 3 2 2 3 5 7 8 9 9 9 8 8 8 8 8 8 8 7 7 6 6 6 6 6 5 5 5 4 5 5 5
10 10 10 10 13 9 9 10 10 10 10 9 9 9 8 8 6 5 3 1 1 2 4 6 8 9 10 10 10 8 8 8 8 8 7 6 6 6 6 6 5 5 5 5 4 4 4 5 5
9 9 8 9 9 7 8 9 10 10 10 9 9 9 8 8 6 5 4 2 1 2 4 5 7 9 10 10 11 10 9 8 8 7 7 6 6 5 5 5 5 5 4 4 4 4 4 4 4
8 8 8 8 6 7 8 9 10 10 10 10 9 9 9 8 8 6 4 3 2 2 4 5 7 9 10 10 11 10 10 9 8 7 6 6 6 5 5 4 4 4 4 4 4 3 3 3 4
7 7 8 6 5 6 7 9 10 10 10 10 9 9 9 8 8 7 5 4 3 3 4 5 7 8 10 11 11 11 10 10 9 8 6 5 5 5 4 4 3 3 3 3 3 3 3 3 3
6 6 6 3 4 6 7 8 9 10 10 9 9 9 9 9 9 8 6 6 5 4 5 5 7 8 9 11 12 12 12 11 10 8 7 5 5 5 4 3 3 3 3 3 3 3 3 3 3
4 5 3 3 4 5 7 8 9 9 9 9 9 9 9 9 10 9 8 7 6 6 6 6 7 8 9 11 13 13 12 12 11 9 8 6 6 5 4 3 3 3 2 2 3 3 3 2 2
4 4 4 4 4 5 7 8 8 8 9 9 9 9 10 10 11 11 10 9 8 7 7 7 8 9 10 12 13 13 12 12 11 10 9 8 6 5 4 3 3 2 2 2 3 3 2 2 1
4 3 2 3 4 4 6 7 8 8 9 9 10 10 11 12 12 12 11 10 9 7 8 8 8 10 12 12 13 13 13 13 12 11 10 8 7 6 4 3 3 2 2 2 2 2 2 2 1
3 2 3 4 4 5 6 7 8 8 9 9 10 11 12 12 13 12 12 11 10 8 8 8 9 11 13 13 14 14 14 14 13 11 10 9 7 5 4 3 3 2 1 1 2 2 2 1 1
3 3 4 4 4 5 6 7 7 8 9 10 10 11 13 13 14 13 13 12 12 10 9 9 10 11 13 13 14 15 15 14 13 12 11 9 8 6 5 4 3 3 1 1 2 2 1 1 1
4 5 5 5 6 6 7 7 7 8 8 10 11 12 13 15 14 15 15 14 13 12 10 10 11 12 13 13 14 15 16 15 13 12 11 10 8 6 5 4 4 3 2 1 2 2 1 1 1
5 5 6 7 7 7 7 8 8 8 9 10 11 12 13 15 15 15 16 16 14 12 10 10 11 12 12 14 14 15 16 16 14 13 12 11 9 7 6 5 4 3 3 2 2 2 2 1 1
7 7 7 8 7 7 7 8 8 9 10 11 12 13 14 15 16 17 17 16 13 10 9 10 11 13 13 13 14 14 16 16 15 14 13 12 10 8 7 6 5 3 3 3 2 2 2 2 2
8 8 9 9 9 8 7 8 9 9 10 11 13 14 15 16 17 18 17 15 12 9 9 8 10 12 12 13 14 14 16 17 16 15 14 13 11 9 8 6 6 4 4 3 3 2 2 2 2
9 9 10 11 9 8 7 8 10 10 11 12 14 15 15 16 17 18 16 15 12 9 9 8 9 12 13 13 14 15 16 16 16 15 14 13 11 10 9 8 6 5 4 4 4 3 3 2 2
10 10 11 12 10 9 8 8 11 11 12 13 14 15 16 17 17 18 16 13 11 10 9 9 9 12 13 13 14 15 16 16 16 16 15 13 12 11 10 9 7 6 5 5 4 4 3 3 2
11 11 12 12 11 10 9 10 11 12 13 14 15 16 16 16 17 17 15 12 10 9 8 8 10 11 13 13 14 15 16 16 16 16 15 14 13 12 11 10 9 7 7 6 5 5 4 4 3
12 13 13 13 12 11 10 11 12 14 15 15 15 16 16 15 15 15 14 12 10 8 7 6 8 9 11 12 14 15 15 16 16 16 15 15 14 13 12 11 10 9 8 8 7 6 5 4 4
13 13 14 14 13 12 11 12 13 14 15 15 15 15 15 14 14 14 13 11 8 7 5 4 5 8 11 12 13 13 14 15 15 15 16 15 14 13 12 12 11 9 9 9 8 7 6 5 4
14 14 14 14 13 13 12 12 13 14 14 14 14 14 14 13 13 12 11 9 8 6 4 3 4 7 10 11 12 13 13 14 14 14 14 15 14 13 13 12 11 10 10 10 9 7 7 6 5
16 16 15 14 13 13 11 10 13 13 13 12 13 13 12 12 11 10 9 8 7 5 3 2 3 6 8 10 11 12 12 13 14 14 14 14 14 13 13 12 12 12 11 11 10 9 8 8 7
18 17 15 14 13 12 12 10 11 12 11 11 11 11 12 11 9 8 7 8 6 5 3 2 2 5 7 9 11 12 12 13 13 13 13 14 14 13 13 12 12 13 12 12 11 11 10 9 9
18 17 15 14 13 13 12 11 10 10 10 9 9 9 10 9 8 7 6 7 5 3 2 2 2 3 5 8 9 10 12 12 12 13 14 14 14 14 14 13 13 13 13 13 13 12 12 11 10
18 16 14 13 13 13 13 11 10 10 9 9 9 9 9 7 6 5 4 5 3 1 1 2 3 3 5 6 7 9 11 12 12 13 13 13 14 14 15 14 14 14 14 14 14 14 13 12 12
18 17 15 13 11 12 13 11 10 9 9 9 9 9 8 6 4 4 4 3 3 2 1 2 2 3 4 5 6 7 9 11 12 13 13 14 14 14 15 15 15 15 15 15 15 15 15 14 14
20 18 16 16 14 11 12 11 9 9 9 9 8 6 5 5 5 4 4 4 3 2 2 3 3 3 4 5 6 7 9 10 12 13 13 14 15 15 15 15 16 16 16 16 17 16 16 16 16
21 19 19 16 14 11 11 10 9 9 8 8 7 6 5 5 5 5 4 4 4 3 3 3 4 5 5 6 7 8 9 11 13 13 14 15 16 16 15 15 16 17 18 18 18 18 18 18 19
21 20 19 17 16 11 10 11 11 9 8 7 6 6 6 6 5 5 5 4 4 4 4 4 5 6 7 7 8 9 10 11 12 14 15 16 16 17 17 17 17 18 19 19 19 19 20 20 21
20 20 19 17 15 13 10 12 12 10 10 8 7 7 6 6 5 5 5 5 5 5 5 5 6 7 8 9 9 9 11 12 12 13 15 16 17 18 18 18 18 18 19 20 20 20 21 21 21
Wind_Direction
81 79 76 71 68 65 64 61 59 60 59 60 60 61 63 64 64 65 75 94 146 177 181 181 179 181 184 189 190 182 174 167 160 150 139 127 118 110 102 95 88 84 85 89 90 90 92 100 108
81 77 75 68 69 64 56 54 52 50 50 52 55 57 57 55 56 54 52 66 130 192 194 196 193 192 195 197 199 195 185 177 168 158 146 134 124 115 105 98 94 90 89 91 93 92 95 104 109
77 75 70 62 67 65 54 48 46 44 42 44 47 49 45 42 39 34 29 16 309 221 208 205 201 200 200 200 201 200 191 185 177 167 155 143 133 123 110 103 101 96 93 94 93 94 99 106 109
70 71 64 60 55 49 47 41 37 37 38 37 40 41 38 35 29 21 16 357 318 253 224 214 210 209 207 204 202 199 196 193 184 178 166 156 144 133 121 111 108 103 98 94 90 97 102 107 112
67 65 61 54 39 34 33 30 27 28 31 33 36 32 27 27 21 14 5 352 328 276 248 229 221 219 215 208 203 199 199 197 191 185 179 169 155 140 132 122 117 114 104 94 90 101 102 112 118
63 63 68 57 15 21 18 18 20 22 24 27 29 26 20 18 15 8 358 345 326 299 274 249 234 227 222 214 207 202 202 201 198 192 184 177 165 150 143 139 130 122 108 94 90 100 107 121 130
52 59 59 22 3 6 11 13 13 15 15 16 16 18 17 16 12 5 356 343 324 304 284 260 241 231 225 216 209 204 203 204 201 197 191 185 178 171 161 155 145 128 107 92 90 97 108 122 132
41 40 24 10 3 356 0 2 3 4 4 4 4 8 11 13 6 359 352 342 326 304 286 267 251 235 224 217 210 208 209 208 205 201 196 191 188 187 179 165 154 129 105 88 87 95 110 113 120
22 29 350 350 347 344 351 355 355 354 353 353 355 357 1 0 357 351 343 335 322 300 282 267 252 236 228 220 214 214 212 209 206 202 196 193 191 192 189 170 159 143 113 92 94 98 107 125 135
359 353 323 342 344 336 337 345 348 349 350 347 346 349 354 353 349 346 340 331 321 301 282 263 251 238 228 220 216 218 216 211 207 202 196 192 195 194 190 173 164 154 128 100 112 111 120 143 179
324 312 319 328 325 324 330 334 339 341 342 341 341 345 349 347 344 342 339 332 322 306 286 262 249 239 232 225 221 218 218 212 208 204 201 198 199 197 193 180 175 168 164 144 131 125 126 134 161
302 307 305 307 310 315 320 325 328 331 331 332 334 337 342 341 337 332 331 329 321 311 293 267 253 241 230 227 223 220 218 213 212 207 203 198 200 199 194 189 188 190 186 161 147 132 126 138 158
290 294 294 298 305 312 320 322 320 319 320 323 329 330 332 333 331 328 326 324 320 307 292 271 250 235 234 230 225 223 220 215 214 209 204 200 199 197 196 198 203 206 197 175 161 142 147 168 177
285 288 290 294 302 313 323 321 318 315 315 321 324 324 324 327 328 327 325 323 318 305 291 272 251 236 231 226 224 222 220 217 215 211 206 203 200 199 198 202 203 204 203 194 187 165 163 179 180
283 286 289 294 303 315 321 316 315 313 311 318 321 320 322 324 326 326 326 323 317 305 293 276 249 240 232 226 224 224 219 218 216 212 208 205 204 204 203 202 200 200 202 201 194 175 166 166 164
281 283 287 294 303 314 314 305 310 310 309 315 319 318 319 320 323 325 326 322 314 306 291 274 248 232 229 227 223 221 217 216 212 208 205 205 205 206 203 199 199 197 199 199 193 179 165 163 169
278 280 281 289 299 308 305 299 305 308 309 312 315 317 317 317 320 323 324 321 310 302 291 274 249 230 224 223 221 218 216 213 208 206 206 206 207 205 201 199 199 196 196 197 194 186 178 175 180
272 276 281 286 293 298 300 300 304 304 307 310 312 315 316 316 318 319 323 323 309 304 295 279 250 233 224 219 215 211 214 213 209 208 209 211 211 208 202 200 201 201 200 197 194 188 183 177 176
271 273 276 283 290 294 297 300 304 305 306 308 309 312 315 318 320 321 325 325 317 308 293 281 250 231 214 211 211 211 213 212 211 210 211 212 213 208 207 205 206 207 202 197 194 193 187 180 178
269 271 275 281 287 292 294 297 302 306 305 304 307 310 312 314 315 320 323 326 319 315 303 285 241 218 209 206 206 208 214 214 213 211 212 210 209 207 207 206 208 208 204 202 200 198 194 193 191
265 267 270 276 286 290 295 299 301 304 303 304 305 309 310 310 312 315 319 322 324 317 298 288 241 215 208 207 210 212 212 210 212 210 209 209 207 207 208 210 209 207 206 205 201 200 202 205 201
261 264 269 275 279 283 292 291 299 304 303 303 304 309 312 310 313 315 324 325 323 322 309 293 246 223 213 212 211 211 209 207 207 207 207 206 206 205 206 210 211 210 208 206 207 208 213 214 217
256 262 267 273 277 281 288 291 294 302 302 301 304 309 317 312 311 316 323 325 322 320 307 284 240 224 218 213 209 211 210 210 209 211 211 209 208 210 211 212 215 216 215 213 214 217 220 222 225
256 260 265 270 274 275 279 286 291 292 291 297 304 309 318 314 308 311 321 328 315 296 275 235 219 219 210 205 207 210 209 211 211 211 212 213 216 217 217 217 220 221 219 219 221 224 226 227 229
251 253 259 266 269 270 273 279 278 276 280 289 300 307 318 315 309 315 321 334 331 280 249 231 213 213 207 205 205 205 207 210 212 214 216 218 220 220 221 222 224 225 224 224 227 230 231 234 237
245 243 243 246 257 266 275 275 274 272 276 284 291 302 311 308 301 313 314 310 314 312 258 241 230 222 215 214 216 217 214 218 221 222 221 222 223 223 224 227 229 230 229 231 232 234 236 240 244
241 240 241 245 249 251 264 272 270 269 273 280 287 298 306 298 296 300 304 286 281 289 270 247 243 234 230 230 230 230 230 228 224 225 226 224 222 224 228 231 233 234 234 234 236 237 241 245 247
240 239 239 240 244 249 263 270 265 266 274 274 273 280 290 301 297 293 304 295 275 271 275 264 245 237 234 237 241 241 238 235 232 230 229 228 226 228 231 234 236 235 237 238 240 243 247 250 252
240 239 239 238 237 236 252 263 259 261 265 263 261 268 274 293 295 292 293 293 286 284 280 268 256 247 242 242 246 250 247 243 239 237 234 233 232 233 236 238 240 241 241 242 244 248 251 253 255
239 237 237 237 242 236 233 255 259 258 257 256 257 264 268 276 282 291 289 293 290 290 285 278 267 253 250 251 254 256 253 248 246 245 241 238 236 237 239 240 243 244 246 247 249 251 255 258 261
Height
5895 5895 5895 5896 5896 5897 5896 5895 5894 5892 5891 5890 5889 5888 5887 5887 5887 5889 5886 5884 5885 5885 5885 5886 5886 5887 5888 5889 5889 5890 5891 5891 5892 5892 5892 5892 5892 5893 5893 5893 5893 5893 5893 5893 5893 5893 5893 5893 5893
5896 5896 5897 5897 5898 5899 5898 5896 5894 5893 5892 5890 5889 5888 5887 5886 5886 5886 5884 5884 5884 5884 5884 5885 5886 5887 5887 5888 5889 5890 5890 5891 5892 5892 5892 5892 5892 5893 5893 5893 5893 5893 5893 5893 5893 5893 5893 5893 5893
5897 5897 5898 5898 5899 5900 5898 5896 5895 5893 5892 5891 5889 5888 5888 5887 5886 5885 5884 5884 5883 5883 5883 5884 5885 5886 5887 5887 5888 5889 5890 5891 5891 5891 5891 5892 5892 5893 5893 5893 5893 5893 5893 5893 5893 5893 5893 5893 5893
5898 5899 5900 5900 5900 5899 5898 5897 5895 5894 5892 5891 5890 5889 5887 5886 5885 5884 5884 5883 5883 5882 5882 5883 5883 5885 5885 5886 5887 5888 5889 5890 5890 5891 5891 5892 5892 5892 5893 5893 5893 5893 5893 5893 5893 5893 5893 5893 5893
5899 5900 5901 5901 5901 5900 5899 5897 5895 5894 5893 5891 5890 5889 5887 5886 5885 5884 5883 5882 5882 5882 5881 5882 5882 5883 5884 5885 5886 5887 5888 5889 5890 5890 5891 5892 5892 5892 5892 5893 5893 5893 5893 5893 5893 5893 5893 5893 5893
5900 5901 5903 5903 5901 5900 5899 5898 5896 5895 5893 5892 5890 5889 5887 5886 5884 5883 5882 5881 5881 5880 5880 5880 5880 5881 5882 5883 5884 5885 5887 5888 5889 5890 5890 5891 5892 5892 5892 5892 5893 5893 5893 5893 5893 5893 5893 5893 5893
5901 5901 5902 5902 5901 5901 5900 5898 5896 5895 5893 5892 5890 5889 5887 5886 5884 5883 5881 5880 5879 5879 5879 5878 5879 5879 5880 5881 5883 5884 5885 5887 5888 5889 5890 5891 5891 5892 5892 5892 5892 5893 5893 5893 5892 5892 5892 5893 5893
5900 5901 5901 5901 5901 5901 5899 5898 5896 5895 5893 5892 5890 5889 5887 5885 5883 5882 5880 5879 5878 5877 5877 5876 5877 5877 5878 5879 5881 5882 5884 5885 5887 5888 5889 5890 5890 5891 5891 5891 5892 5892 5892 5892 5892 5892 5893 5893 5893
5899 5901 5902 5901 5900 5900 5899 5897 5896 5895 5893 5891 5890 5888 5887 5884 5882 5881 5879 5877 5876 5875 5874 5874 5874 5875 5876 5877 5879 5880 5882 5884 5885 5886 5887 5888 5889 5889 5890 5891 5892 5892 5892 5892 5892 5892 5892 5893 5893
5899 5900 5900 5899 5899 5898 5898 5897 5895 5894 5892 5891 5889 5888 5885 5883 5881 5879 5877 5876 5874 5873 5872 5872 5873 5873 5874 5876 5877 5879 5881 5882 5883 5885 5886 5887 5888 5889 5890 5890 5891 5891 5892 5892 5892 5892 5892 5893 5893
5897 5898 5898 5897 5897 5897 5896 5895 5894 5893 5891 5890 5888 5887 5884 5882 5880 5878 5876 5874 5872 5871 5870 5870 5870 5871 5872 5874 5876 5878 5879 5880 5882 5884 5885 5886 5887 5888 5889 5890 5890 5891 5891 5892 5892 5892 5892 5892 5893
5896 5896 5896 5896 5896 5895 5895 5894 5893 5892 5891 5889 5887 5885 5883 5881 5878 5876 5874 5872 5870 5869 5867 5868 5868 5869 5870 5872 5873 5875 5877 5879 5881 5882 5884 5885 5886 5888 5889 5889 5890 5890 5891 5891 5891 5892 5892 5892 5892
5895 5895 5895 5894 5894 5894 5893 5892 5891 5890 5889 5887 5886 5884 5881 5879 5876 5874 5872 5869 5867 5866 5865 5865 5865 5866 5868 5869 5871 5873 5875 5877 5879 5881 5882 5884 5886 5887 5888 5889 5889 5890 5890 5891 5891 5891 5892 5892 5892
5893 5893 5893 5893 5892 5892 5892 5891 5890 5889 5888 5886 5884 5882 5880 5877 5875 5872 5869 5866 5864 5863 5862 5862 5862 5864 5865 5867 5869 5870 5873 5875 5877 5879 5881 5883 5885 5886 5887 5889 5889 5890 5890 5890 5891 5891 5891 5891 5892
5891 5892 5891 5891 5891 5890 5890 5890 5888 5887 5886 5884 5882 5880 5878 5875 5872 5869 5866 5864 5862 5860 5859 5859 5860 5861 5863 5865 5867 5868 5871 5873 5875 5878 5880 5882 5883 5885 5886 5888 5889 5889 5890 5890 5890 5891 5891 5891 5892
5889 5890 5890 5890 5889 5889 5890 5890 5887 5885 5884 5882 5880 5878 5876 5873 5870 5867 5864 5861 5859 5858 5857 5858 5858 5859 5861 5863 5865 5867 5869 5871 5874 5876 5878 5880 5882 5884 5885 5887 5888 5888 5889 5890 5890 5891 5891 5891 5892
5887 5888 5888 5888 5887 5887 5887 5887 5885 5883 5882 5880 5879 5876 5874 5871 5868 5865 5862 5859 5857 5856 5855 5855 5856 5857 5859 5861 5863 5865 5868 5870 5872 5875 5877 5879 5881 5883 5884 5886 5887 5888 5889 5889 5890 5891 5891 5891 5892
5886 5886 5885 5885 5884 5885 5885 5884 5883 5881 5880 5878 5876 5874 5872 5869 5866 5863 5860 5857 5855 5854 5853 5853 5854 5856 5857 5859 5861 5864 5866 5868 5871 5873 5876 5878 5880 5881 5883 5885 5886 5887 5888 5889 5889 5890 5891 5891 5892
5882 5882 5882 5882 5882 5882 5882 5882 5881 5879 5878 5876 5874 5871 5869 5867 5864 5861 5858 5855 5853 5852 5851 5852 5853 5854 5856 5858 5860 5862 5865 5867 5869 5871 5874 5876 5878 5880 5882 5883 5885 5886 5887 5888 5889 5890 5891 5891 5892
5879 5879 5879 5879 5879 5879 5879 5879 5878 5876 5875 5873 5871 5869 5867 5864 5862 5859 5857 5854 5852 5852 5851 5851 5851 5852 5855 5857 5859 5861 5862 5865 5867 5869 5872 5874 5876 5878 5880 5882 5883 5885 5886 5887 5888 5889 5890 5891 5892
5875 5876 5876 5876 5876 5876 5877 5877 5876 5874 5872 5870 5868 5866 5864 5862 5860 5857 5855 5853 5852 5851 5850 5851 5851 5852 5853 5855 5857 5859 5861 5863 5865 5868 5870 5872 5874 5876 5878 5880 5882 5883 5885 5886 5887 5889 5890 5890 5891
5871 5872 5872 5873 5874 5875 5875 5876 5874 5871 5869 5868 5866 5863 5861 5859 5857 5855 5853 5852 5851 5849 5849 5850 5850 5851 5852 5854 5856 5858 5859 5861 5864 5866 5868 5870 5872 5874 5876 5878 5880 5882 5883 5885 5886 5887 5888 5889 5890
5867 5868 5869 5870 5871 5871 5872 5872 5873 5869 5867 5865 5863 5861 5859 5857 5856 5854 5852 5851 5850 5849 5849 5849 5849 5850 5851 5852 5854 5856 5858 5860 5862 5864 5867 5869 5871 5873 5874 5876 5878 5880 5881 5883 5884 5886 5887 5888 5889
5863 5865 5866 5866 5868 5869 5869 5869 5869 5867 5864 5862 5861 5859 5857 5855 5854 5853 5851 5850 5848 5848 5848 5849 5849 5850 5850 5851 5853 5854 5856 5858 5860 5863 5865 5867 5869 5871 5873 5874 5876 5878 5879 5881 5882 5884 5885 5886 5886
5859 5862 5864 5865 5866 5867 5865 5865 5866 5863 5862 5860 5859 5857 5856 5854 5853 5851 5850 5849 5848 5848 5848 5849 5850 5850 5851 5851 5852 5853 5855 5857 5859 5861 5863 5865 5867 5869 5870 5872 5874 5876 5877 5878 5880 5881 5882 5883 5884
5855 5858 5861 5864 5865 5865 5862 5862 5863 5861 5859 5858 5857 5856 5854 5853 5852 5851 5850 5849 5848 5848 5848 5849 5849 5850 5850 5851 5852 5853 5854 5856 5857 5859 5861 5863 5864 5866 5868 5870 5871 5873 5874 5876 5877 5879 5880 5880 5881
5850 5852 5856 5858 5859 5861 5861 5859 5859 5858 5857 5856 5855 5854 5853 5852 5851 5850 5849 5848 5848 5848 5848 5848 5849 5849 5850 5851 5851 5852 5853 5855 5856 5857 5859 5860 5862 5864 5865 5867 5869 5870 5872 5873 5874 5875 5876 5877 5877
5846 5848 5850 5853 5855 5858 5859 5857 5857 5855 5855 5854 5853 5853 5852 5851 5850 5849 5848 5848 5847 5847 5847 5847 5848 5848 5849 5849 5850 5851 5852 5853 5854 5855 5856 5858 5859 5861 5862 5864 5865 5867 5868 5869 5871 5872 5872 5873 5874
5841 5844 5846 5849 5852 5855 5857 5858 5854 5853 5852 5852 5851 5851 5850 5850 5849 5848 5847 5847 5846 5846 5846 5846 5846 5847 5847 5848 5849 5850 5850 5851 5852 5852 5854 5855 5856 5858 5859 5860 5862 5863 5864 5866 5867 5867 5868 5869 5869
5836 5839 5842 5845 5847 5849 5853 5856 5850 5850 5849 5849 5849 5849 5849 5848 5848 5847 5847 5846 5846 5845 5845 5845 5845 5845 5846 5846 5847 5847 5848 5848 5849 5849 5850 5851 5853 5854 5855 5856 5858 5859 5860 5861 5862 5863 5863 5864 5864